Wetterstation Valentinhaft
Wetterdaten: aktuell Sonntag, 23.01.2022 04:30
Datum Zeit Temp. A. Wasser Feuchte A. Luftdruck Regen Wind Richtung Richtung Sonnenschein Solar Taupunkt Windchill Windböen
23.01.2022 04:30 0,6 °C 1,7 °C 98 % 1032,4 hPa 0,0 mm 7,9 km/h W 263 ° 0 min 0 W/m² 0,3 °C -2,0 °C 18,4 km/h
23.01.2022 04:20 0,5 °C 1,7 °C 98 % 1032,5 hPa 0,0 mm 1,6 km/h NW 319 ° 0 min 0 W/m² 0,2 °C 0,5 °C 6,9 km/h
23.01.2022 04:10 0,4 °C 1,7 °C 98 % 1032,5 hPa 0,0 mm 1,7 km/h NW 319 ° 0 min 0 W/m² 0,1 °C 0,4 °C 9,2 km/h
23.01.2022 04:00 0,4 °C 1,7 °C 98 % 1032,5 hPa 0,0 mm 0,0 km/h N 350 ° 0 min 0 W/m² 0,1 °C 0,4 °C 0,0 km/h
23.01.2022 03:50 0,4 °C 1,7 °C 98 % 1032,5 hPa 0,0 mm 0,3 km/h N 350 ° 0 min 0 W/m² 0,1 °C 0,4 °C 6,9 km/h
23.01.2022 03:40 0,4 °C 1,7 °C 98 % 1032,5 hPa 0,0 mm 1,7 km/h N 350 ° 0 min 0 W/m² 0,1 °C 0,4 °C 6,9 km/h
23.01.2022 03:30 0,4 °C 1,7 °C 98 % 1032,5 hPa 0,0 mm 3,5 km/h W 273 ° 0 min 0 W/m² 0,1 °C 0,4 °C 9,2 km/h
23.01.2022 03:20 0,4 °C 1,7 °C 98 % 1032,5 hPa 0,0 mm 3,7 km/h W 270 ° 0 min 0 W/m² 0,1 °C 0,4 °C 9,2 km/h
23.01.2022 03:10 0,4 °C 1,7 °C 98 % 1032,5 hPa 0,0 mm 3,9 km/h W-NW 286 ° 0 min 0 W/m² 0,1 °C 0,4 °C 13,8 km/h
23.01.2022 03:00 0,4 °C 1,7 °C 98 % 1032,5 hPa 0,0 mm 3,5 km/h W-NW 286 ° 0 min 0 W/m² 0,1 °C 0,4 °C 9,2 km/h
23.01.2022 02:50 0,4 °C 1,7 °C 98 % 1032,5 hPa 0,0 mm 3,8 km/h W 265 ° 0 min 0 W/m² 0,1 °C 0,4 °C 9,2 km/h
23.01.2022 02:40 0,4 °C 1,7 °C 98 % 1032,6 hPa 0,0 mm 5,2 km/h W 272 ° 0 min 0 W/m² 0,1 °C -1,2 °C 13,8 km/h
23.01.2022 02:30 0,4 °C 1,7 °C 98 % 1032,6 hPa 0,0 mm 7,2 km/h W-SW 250 ° 0 min 0 W/m² 0,1 °C -2,0 °C 18,4 km/h
23.01.2022 02:20 0,4 °C 1,7 °C 98 % 1032,5 hPa 0,0 mm 7,2 km/h W-SW 257 ° 0 min 0 W/m² 0,1 °C -2,0 °C 13,8 km/h
23.01.2022 02:10 0,4 °C 1,7 °C 98 % 1032,5 hPa 0,0 mm 10,8 km/h W 272 ° 0 min 0 W/m² 0,1 °C -3,0 °C 18,4 km/h
23.01.2022 02:00 0,4 °C 1,7 °C 98 % 1032,4 hPa 0,0 mm 8,4 km/h W-NW 286 ° 0 min 0 W/m² 0,1 °C -2,4 °C 18,4 km/h
23.01.2022 01:50 0,4 °C 1,7 °C 98 % 1032,3 hPa 0,0 mm 9,3 km/h W 267 ° 0 min 0 W/m² 0,1 °C -2,6 °C 20,7 km/h
23.01.2022 01:40 0,4 °C 1,7 °C 98 % 1032,4 hPa 0,0 mm 7,7 km/h W-SW 239 ° 0 min 0 W/m² 0,1 °C -2,2 °C 16,1 km/h
23.01.2022 01:30 0,4 °C 1,7 °C 98 % 1032,3 hPa 0,0 mm 10,6 km/h W-SW 238 ° 0 min 0 W/m² 0,1 °C -3,0 °C 20,7 km/h
23.01.2022 01:20 0,5 °C 1,7 °C 98 % 1032,3 hPa 0,0 mm 11,7 km/h SW 225 ° 0 min 0 W/m² 0,2 °C -3,1 °C 23,0 km/h
23.01.2022 01:10 0,6 °C 1,7 °C 98 % 1032,2 hPa 0,0 mm 14,4 km/h SW 217 ° 0 min 0 W/m² 0,3 °C -3,6 °C 25,3 km/h
23.01.2022 01:00 0,6 °C 1,7 °C 98 % 1032,1 hPa 0,0 mm 16,5 km/h W-SW 238 ° 0 min 0 W/m² 0,3 °C -3,9 °C 27,6 km/h
23.01.2022 00:50 0,6 °C 1,7 °C 98 % 1032,0 hPa 0,0 mm 17,2 km/h W 260 ° 0 min 0 W/m² 0,3 °C -4,1 °C 29,9 km/h
23.01.2022 00:40 0,6 °C 1,7 °C 98 % 1031,9 hPa 0,0 mm 18,3 km/h SW 217 ° 0 min 0 W/m² 0,3 °C -4,2 °C 29,9 km/h
23.01.2022 00:30 0,6 °C 1,7 °C 98 % 1031,9 hPa 0,0 mm 15,7 km/h SW 231 ° 0 min 0 W/m² 0,3 °C -3,8 °C 29,9 km/h
23.01.2022 00:20 0,5 °C 1,7 °C 98 % 1031,9 hPa 0,0 mm 14,1 km/h W-SW 245 ° 0 min 0 W/m² 0,2 °C -3,6 °C 25,3 km/h
23.01.2022 00:10 0,5 °C 1,7 °C 98 % 1031,9 hPa 0,0 mm 15,4 km/h SW 230 ° 0 min 0 W/m² 0,2 °C -3,9 °C 25,3 km/h
23.01.2022 00:00 0,5 °C 1,7 °C 98 % 1031,8 hPa 0,0 mm 16,4 km/h W-SW 255 ° 0 min 0 W/m² 0,2 °C -4,0 °C 27,6 km/h
22.01.2022 23:50 0,4 °C 1,7 °C 98 % 1032,0 hPa 0,0 mm 14,7 km/h W-SW 244 ° 0 min 0 W/m² 0,1 °C -3,9 °C 25,3 km/h
22.01.2022 23:40 0,4 °C 1,7 °C 98 % 1032,0 hPa 0,0 mm 12,9 km/h W 268 ° 0 min 0 W/m² 0,1 °C -3,5 °C 18,4 km/h
22.01.2022 23:30 0,4 °C 1,7 °C 98 % 1032,1 hPa 0,0 mm 13,3 km/h W 259 ° 0 min 0 W/m² 0,1 °C -3,6 °C 23,0 km/h
22.01.2022 23:20 0,4 °C 1,7 °C 98 % 1032,1 hPa 0,0 mm 10,2 km/h W-SW 254 ° 0 min 0 W/m² 0,1 °C -2,9 °C 23,0 km/h
22.01.2022 23:10 0,4 °C 1,7 °C 98 % 1032,2 hPa 0,0 mm 11,1 km/h S-SW 211 ° 0 min 0 W/m² 0,1 °C -3,1 °C 20,7 km/h
22.01.2022 23:00 0,5 °C 1,7 °C 98 % 1032,3 hPa 0,0 mm 12,0 km/h W 275 ° 0 min 0 W/m² 0,2 °C -3,2 °C 25,3 km/h
22.01.2022 22:50 0,5 °C 1,7 °C 98 % 1032,2 hPa 0,0 mm 15,0 km/h W 259 ° 0 min 0 W/m² 0,2 °C -3,8 °C 23,0 km/h
22.01.2022 22:40 0,5 °C 1,7 °C 98 % 1032,3 hPa 0,0 mm 15,9 km/h W 260 ° 0 min 0 W/m² 0,2 °C -4,0 °C 27,6 km/h
22.01.2022 22:30 0,6 °C 1,7 °C 98 % 1032,2 hPa 0,0 mm 13,5 km/h W-SW 246 ° 0 min 0 W/m² 0,3 °C -3,4 °C 23,0 km/h
22.01.2022 22:20 0,5 °C 1,7 °C 98 % 1032,2 hPa 0,0 mm 14,1 km/h W-SW 247 ° 0 min 0 W/m² 0,2 °C -3,6 °C 23,0 km/h
22.01.2022 22:10 0,5 °C 1,7 °C 98 % 1032,2 hPa 0,0 mm 12,2 km/h SW 225 ° 0 min 0 W/m² 0,2 °C -3,2 °C 23,0 km/h
22.01.2022 22:00 0,4 °C 1,7 °C 98 % 1032,3 hPa 0,0 mm 8,7 km/h SW 227 ° 0 min 0 W/m² 0,1 °C -2,5 °C 20,7 km/h
22.01.2022 21:50 0,4 °C 1,7 °C 98 % 1032,2 hPa 0,0 mm 7,5 km/h W-SW 253 ° 0 min 0 W/m² 0,1 °C -2,1 °C 16,1 km/h
22.01.2022 21:40 0,3 °C 1,7 °C 98 % 1032,2 hPa 0,0 mm 6,2 km/h W 260 ° 0 min 0 W/m² 0,0 °C -1,8 °C 16,1 km/h
22.01.2022 21:30 0,3 °C 1,7 °C 98 % 1032,2 hPa 0,0 mm 6,7 km/h SW 234 ° 0 min 0 W/m² 0,0 °C -1,9 °C 16,1 km/h
22.01.2022 21:20 0,3 °C 1,7 °C 98 % 1032,2 hPa 0,0 mm 7,7 km/h W 261 ° 0 min 0 W/m² 0,0 °C -2,3 °C 16,1 km/h
22.01.2022 21:10 0,3 °C 1,7 °C 98 % 1032,3 hPa 0,0 mm 8,7 km/h W-SW 238 ° 0 min 0 W/m² 0,0 °C -2,6 °C 18,4 km/h
22.01.2022 21:00 0,3 °C 1,7 °C 98 % 1032,3 hPa 0,0 mm 8,3 km/h W 263 ° 0 min 0 W/m² 0,0 °C -2,5 °C 16,1 km/h
22.01.2022 20:50 0,3 °C 1,7 °C 98 % 1032,3 hPa 0,0 mm 8,1 km/h W-SW 246 ° 0 min 0 W/m² 0,0 °C -2,4 °C 16,1 km/h
22.01.2022 20:40 0,3 °C 1,7 °C 98 % 1032,3 hPa 0,0 mm 9,2 km/h W 267 ° 0 min 0 W/m² 0,0 °C -2,7 °C 16,1 km/h
22.01.2022 20:30 0,3 °C 1,7 °C 98 % 1032,2 hPa 0,0 mm 9,9 km/h W-SW 251 ° 0 min 0 W/m² 0,0 °C -2,9 °C 18,4 km/h
22.01.2022 20:20 0,3 °C 1,7 °C 98 % 1032,2 hPa 0,0 mm 9,9 km/h SW 231 ° 0 min 0 W/m² 0,0 °C -2,9 °C 18,4 km/h
22.01.2022 20:10 0,3 °C 1,7 °C 98 % 1032,1 hPa 0,0 mm 10,1 km/h W 263 ° 0 min 0 W/m² 0,0 °C -3,0 °C 18,4 km/h
22.01.2022 20:00 0,3 °C 1,7 °C 98 % 1032,1 hPa 0,0 mm 11,4 km/h W-SW 252 ° 0 min 0 W/m² 0,0 °C -3,3 °C 20,7 km/h
22.01.2022 19:50 0,3 °C 1,7 °C 98 % 1032,0 hPa 0,0 mm 11,7 km/h W 265 ° 0 min 0 W/m² 0,0 °C -3,4 °C 20,7 km/h
22.01.2022 19:40 0,3 °C 1,7 °C 98 % 1031,9 hPa 0,0 mm 11,6 km/h W-SW 248 ° 0 min 0 W/m² 0,0 °C -3,3 °C 20,7 km/h
22.01.2022 19:30 0,3 °C 1,7 °C 98 % 1031,8 hPa 0,0 mm 13,7 km/h W-SW 253 ° 0 min 0 W/m² 0,0 °C -3,8 °C 23,0 km/h
22.01.2022 19:20 0,3 °C 1,7 °C 98 % 1031,8 hPa 0,0 mm 13,7 km/h SW 223 ° 0 min 0 W/m² 0,0 °C -3,8 °C 27,6 km/h
22.01.2022 19:10 0,3 °C 1,7 °C 98 % 1031,8 hPa 0,0 mm 10,9 km/h W-SW 247 ° 0 min 0 W/m² 0,0 °C -3,2 °C 23,0 km/h
22.01.2022 19:00 0,3 °C 1,7 °C 98 % 1031,6 hPa 0,0 mm 14,7 km/h SW 223 ° 0 min 0 W/m² 0,0 °C -4,0 °C 25,3 km/h
22.01.2022 18:50 0,3 °C 1,7 °C 98 % 1031,6 hPa 0,0 mm 14,1 km/h S-SW 209 ° 0 min 0 W/m² 0,0 °C -3,9 °C 23,0 km/h
22.01.2022 18:40 0,3 °C 1,7 °C 98 % 1031,5 hPa 0,0 mm 11,5 km/h SW 236 ° 0 min 0 W/m² 0,0 °C -3,3 °C 23,0 km/h
22.01.2022 18:30 0,3 °C 1,7 °C 98 % 1031,5 hPa 0,0 mm 12,1 km/h W-SW 254 ° 0 min 0 W/m² 0,0 °C -3,5 °C 23,0 km/h
22.01.2022 18:20 0,3 °C 1,7 °C 98 % 1031,4 hPa 0,0 mm 15,2 km/h W 274 ° 0 min 0 W/m² 0,0 °C -4,1 °C 27,6 km/h
22.01.2022 18:10 0,3 °C 1,7 °C 98 % 1031,3 hPa 0,0 mm 14,3 km/h W 260 ° 0 min 0 W/m² 0,0 °C -3,9 °C 27,6 km/h
22.01.2022 18:00 0,3 °C 1,7 °C 98 % 1031,3 hPa 0,2 mm 11,5 km/h SW 219 ° 0 min 0 W/m² 0,0 °C -3,3 °C 23,0 km/h
22.01.2022 17:50 0,3 °C 1,7 °C 98 % 1031,2 hPa 0,0 mm 13,1 km/h SW 218 ° 0 min 0 W/m² 0,0 °C -3,7 °C 23,0 km/h
22.01.2022 17:40 0,3 °C 1,7 °C 98 % 1031,1 hPa 0,0 mm 11,3 km/h W 275 ° 0 min 0 W/m² 0,0 °C -3,3 °C 23,0 km/h
22.01.2022 17:30 0,3 °C 1,7 °C 98 % 1031,2 hPa 0,0 mm 16,3 km/h W-SW 258 ° 0 min 0 W/m² 0,0 °C -4,3 °C 27,6 km/h
22.01.2022 17:20 0,3 °C 1,7 °C 98 % 1031,1 hPa 0,0 mm 15,2 km/h W 261 ° 0 min 0 W/m² 0,0 °C -4,1 °C 25,3 km/h
22.01.2022 17:10 0,3 °C 1,7 °C 98 % 1031,0 hPa 0,0 mm 17,3 km/h W-SW 250 ° 0 min 0 W/m² 0,0 °C -4,4 °C 27,6 km/h
22.01.2022 17:00 0,3 °C 1,7 °C 98 % 1030,8 hPa 0,0 mm 16,9 km/h SW 218 ° 0 min 0 W/m² 0,0 °C -4,4 °C 29,9 km/h
22.01.2022 16:50 0,3 °C 1,7 °C 98 % 1030,8 hPa 0,0 mm 15,1 km/h W 261 ° 0 min 0 W/m² 0,0 °C -4,1 °C 29,9 km/h
22.01.2022 16:40 0,3 °C 1,7 °C 98 % 1030,7 hPa 0,0 mm 16,4 km/h SW 228 ° 0 min 0 W/m² 0,0 °C -4,3 °C 29,9 km/h
22.01.2022 16:30 0,3 °C 1,7 °C 98 % 1030,6 hPa 0,0 mm 14,4 km/h SW 235 ° 0 min 5 W/m² 0,0 °C -3,9 °C 27,6 km/h
22.01.2022 16:20 0,3 °C 1,7 °C 98 % 1030,5 hPa 0,0 mm 19,6 km/h W-SW 245 ° 0 min 8 W/m² 0,0 °C -4,8 °C 32,2 km/h
22.01.2022 16:10 0,3 °C 1,7 °C 98 % 1030,7 hPa 0,0 mm 19,9 km/h W-SW 256 ° 0 min 12 W/m² 0,0 °C -4,8 °C 32,2 km/h
22.01.2022 16:00 0,3 °C 1,7 °C 97 % 1030,5 hPa 0,0 mm 20,0 km/h W-NW 282 ° 0 min 17 W/m² -0,1 °C -4,9 °C 34,5 km/h
22.01.2022 15:50 0,3 °C 2,2 °C 97 % 1030,6 hPa 0,0 mm 20,1 km/h W-SW 238 ° 0 min 20 W/m² -0,1 °C -4,9 °C 36,8 km/h
22.01.2022 15:40 0,3 °C 2,2 °C 97 % 1030,5 hPa 0,0 mm 20,8 km/h W-SW 250 ° 0 min 23 W/m² -0,1 °C -5,0 °C 39,1 km/h
22.01.2022 15:30 0,3 °C 2,2 °C 97 % 1030,5 hPa 0,0 mm 19,2 km/h W 261 ° 0 min 25 W/m² -0,1 °C -4,7 °C 32,2 km/h
22.01.2022 15:20 0,3 °C 2,2 °C 97 % 1030,6 hPa 0,0 mm 13,5 km/h W-NW 286 ° 0 min 23 W/m² -0,1 °C -3,8 °C 23,0 km/h
22.01.2022 15:10 0,3 °C 2,2 °C 97 % 1030,5 hPa 0,0 mm 14,4 km/h SW 225 ° 0 min 26 W/m² -0,1 °C -3,9 °C 23,0 km/h
22.01.2022 15:00 0,3 °C 2,2 °C 97 % 1030,6 hPa 0,0 mm 14,9 km/h SW 228 ° 0 min 30 W/m² -0,1 °C -4,0 °C 25,3 km/h
22.01.2022 14:50 0,3 °C 2,2 °C 97 % 1030,6 hPa 0,0 mm 17,1 km/h W-SW 246 ° 0 min 37 W/m² -0,1 °C -4,4 °C 29,9 km/h
22.01.2022 14:40 0,4 °C 2,2 °C 97 % 1030,5 hPa 0,0 mm 18,6 km/h W-SW 248 ° 0 min 44 W/m² -0,0 °C -4,5 °C 29,9 km/h
22.01.2022 14:30 0,3 °C 2,2 °C 97 % 1030,3 hPa 0,0 mm 20,4 km/h SW 226 ° 0 min 44 W/m² -0,1 °C -4,9 °C 34,5 km/h
22.01.2022 14:20 0,3 °C 2,2 °C 97 % 1030,3 hPa 0,0 mm 18,3 km/h SW 232 ° 0 min 38 W/m² -0,1 °C -4,6 °C 29,9 km/h
22.01.2022 14:10 0,3 °C 2,2 °C 97 % 1030,3 hPa 0,0 mm 20,2 km/h W 261 ° 0 min 40 W/m² -0,1 °C -4,9 °C 32,2 km/h
22.01.2022 14:00 0,3 °C 2,2 °C 97 % 1030,2 hPa 0,0 mm 22,0 km/h W-SW 246 ° 0 min 42 W/m² -0,1 °C -5,1 °C 32,2 km/h
22.01.2022 13:50 0,4 °C 2,2 °C 97 % 1030,2 hPa 0,0 mm 26,4 km/h SW 236 ° 0 min 48 W/m² -0,0 °C -5,6 °C 46,0 km/h
22.01.2022 13:40 0,4 °C 2,2 °C 97 % 1030,1 hPa 0,0 mm 28,2 km/h W 269 ° 0 min 52 W/m² -0,0 °C -5,8 °C 43,7 km/h
22.01.2022 13:30 0,3 °C 2,2 °C 97 % 1030,2 hPa 0,0 mm 29,2 km/h SW 229 ° 0 min 44 W/m² -0,1 °C -6,0 °C 46,0 km/h
22.01.2022 13:20 0,3 °C 2,2 °C 97 % 1030,2 hPa 0,0 mm 28,0 km/h SW 220 ° 0 min 39 W/m² -0,1 °C -5,9 °C 46,0 km/h
22.01.2022 13:10 0,3 °C 2,2 °C 97 % 1030,3 hPa 0,0 mm 26,7 km/h SW 236 ° 0 min 35 W/m² -0,1 °C -5,7 °C 41,4 km/h
22.01.2022 13:00 0,3 °C 2,2 °C 97 % 1030,2 hPa 0,0 mm 26,6 km/h SW 227 ° 0 min 35 W/m² -0,1 °C -5,7 °C 50,6 km/h
22.01.2022 12:50 0,3 °C 2,2 °C 97 % 1030,2 hPa 0,0 mm 31,0 km/h W-SW 257 ° 0 min 44 W/m² -0,1 °C -6,2 °C 48,3 km/h
22.01.2022 12:40 0,3 °C 2,2 °C 97 % 1030,0 hPa 0,0 mm 32,7 km/h W-SW 240 ° 0 min 50 W/m² -0,1 °C -6,4 °C 50,6 km/h
22.01.2022 12:30 0,3 °C 2,2 °C 97 % 1030,0 hPa 0,0 mm 32,7 km/h SW 225 ° 0 min 52 W/m² -0,1 °C -6,4 °C 59,8 km/h
22.01.2022 12:20 0,3 °C 2,2 °C 97 % 1030,0 hPa 0,0 mm 31,7 km/h SW 218 ° 0 min 45 W/m² -0,1 °C -6,3 °C 50,6 km/h
22.01.2022 12:10 0,3 °C 2,2 °C 97 % 1029,9 hPa 0,0 mm 29,3 km/h S-SW 209 ° 0 min 42 W/m² -0,1 °C -6,0 °C 46,0 km/h
22.01.2022 12:00 0,3 °C 2,2 °C 97 % 1029,8 hPa 0,0 mm 29,1 km/h S-SW 192 ° 0 min 42 W/m² -0,1 °C -6,0 °C 48,3 km/h
22.01.2022 11:50 0,3 °C 2,2 °C 97 % 1029,8 hPa 0,0 mm 31,2 km/h W-SW 245 ° 0 min 52 W/m² -0,1 °C -6,2 °C 48,3 km/h
22.01.2022 11:40 0,2 °C 2,2 °C 97 % 1029,8 hPa 0,0 mm 30,3 km/h W 261 ° 0 min 37 W/m² -0,2 °C -6,2 °C 48,3 km/h
22.01.2022 11:30 0,2 °C 2,2 °C 97 % 1029,7 hPa 0,0 mm 29,3 km/h W 263 ° 0 min 40 W/m² -0,2 °C -6,1 °C 50,6 km/h
22.01.2022 11:20 0,2 °C 2,2 °C 97 % 1029,7 hPa 0,0 mm 30,0 km/h W-SW 249 ° 0 min 31 W/m² -0,2 °C -6,2 °C 55,2 km/h
22.01.2022 11:10 0,1 °C 2,2 °C 97 % 1029,6 hPa 0,0 mm 26,7 km/h W-SW 254 ° 0 min 32 W/m² -0,3 °C -6,0 °C 41,4 km/h
22.01.2022 11:00 0,1 °C 2,2 °C 97 % 1029,5 hPa 0,0 mm 29,4 km/h SW 233 ° 0 min 38 W/m² -0,3 °C -6,3 °C 43,7 km/h
22.01.2022 10:50 0,1 °C 1,7 °C 97 % 1029,3 hPa 0,0 mm 29,9 km/h SW 229 ° 0 min 32 W/m² -0,3 °C -6,3 °C 46,0 km/h
22.01.2022 10:40 0,0 °C 1,7 °C 97 % 1029,2 hPa 0,0 mm 32,3 km/h SW 221 ° 0 min 24 W/m² -0,4 °C -6,7 °C 48,3 km/h
22.01.2022 10:30 -0,1 °C 1,7 °C 97 % 1029,2 hPa 0,0 mm 32,0 km/h W 266 ° 0 min 25 W/m² -0,5 °C -6,8 °C 62,0 km/h
22.01.2022 10:20 -0,1 °C 1,7 °C 97 % 1029,0 hPa 0,0 mm 31,8 km/h W 271 ° 0 min 18 W/m² -0,5 °C -6,8 °C 46,0 km/h
22.01.2022 10:10 -0,2 °C 1,7 °C 97 % 1028,7 hPa 0,0 mm 34,5 km/h W-SW 256 ° 0 min 11 W/m² -0,6 °C -7,2 °C 52,9 km/h
22.01.2022 10:00 -0,2 °C 1,7 °C 97 % 1028,5 hPa 0,0 mm 32,3 km/h W 274 ° 0 min 13 W/m² -0,6 °C -7,0 °C 48,3 km/h
22.01.2022 09:50 -0,2 °C 1,7 °C 97 % 1028,4 hPa 0,0 mm 32,3 km/h W 261 ° 0 min 19 W/m² -0,6 °C -7,0 °C 52,9 km/h
22.01.2022 09:40 -0,3 °C 1,7 °C 97 % 1028,3 hPa 0,0 mm 27,5 km/h S-SW 211 ° 0 min 21 W/m² -0,7 °C -6,6 °C 43,7 km/h
22.01.2022 09:30 -0,4 °C 1,7 °C 97 % 1028,2 hPa 0,0 mm 30,6 km/h W 268 ° 0 min 15 W/m² -0,8 °C -7,1 °C 55,2 km/h
22.01.2022 09:20 -0,5 °C 1,7 °C 97 % 1028,3 hPa 0,0 mm 28,2 km/h SW 223 ° 0 min 10 W/m² -0,9 °C -6,9 °C 46,0 km/h
22.01.2022 09:10 -0,6 °C 1,7 °C 97 % 1028,2 hPa 0,0 mm 25,6 km/h W 261 ° 0 min 6 W/m² -1,0 °C -6,8 °C 39,1 km/h
22.01.2022 09:00 -0,6 °C 1,7 °C 97 % 1028,2 hPa 0,0 mm 25,9 km/h W-SW 243 ° 0 min 5 W/m² -1,0 °C -6,8 °C 46,0 km/h
22.01.2022 08:50 -0,7 °C 1,7 °C 97 % 1028,2 hPa 0,0 mm 30,4 km/h W 266 ° 0 min 2 W/m² -1,1 °C -7,4 °C 48,3 km/h
22.01.2022 08:40 -0,7 °C 1,7 °C 97 % 1028,1 hPa 0,0 mm 26,7 km/h S-SW 209 ° 0 min 0 W/m² -1,1 °C -7,0 °C 41,4 km/h
22.01.2022 08:30 -0,8 °C 1,7 °C 96 % 1027,9 hPa 0,0 mm 26,8 km/h W 273 ° 0 min 0 W/m² -1,4 °C -7,2 °C 43,7 km/h
22.01.2022 08:20 -0,8 °C 1,7 °C 97 % 1027,8 hPa 0,0 mm 29,4 km/h W-SW 250 ° 0 min 0 W/m² -1,2 °C -7,5 °C 43,7 km/h
22.01.2022 08:10 -0,9 °C 1,7 °C 96 % 1027,8 hPa 0,0 mm 29,0 km/h W 275 ° 0 min 0 W/m² -1,5 °C -7,5 °C 46,0 km/h
22.01.2022 08:00 -0,9 °C 1,7 °C 96 % 1027,8 hPa 0,0 mm 26,5 km/h W-SW 258 ° 0 min 0 W/m² -1,5 °C -7,3 °C 43,7 km/h
22.01.2022 07:50 -1,0 °C 1,7 °C 96 % 1027,7 hPa 0,0 mm 25,5 km/h W-SW 239 ° 0 min 0 W/m² -1,6 °C -7,3 °C 43,7 km/h
22.01.2022 07:40 -1,1 °C 1,7 °C 96 % 1027,5 hPa 0,0 mm 28,7 km/h S-SW 196 ° 0 min 0 W/m² -1,7 °C -7,8 °C 43,7 km/h
22.01.2022 07:30 -1,1 °C 1,7 °C 96 % 1027,5 hPa 0,0 mm 30,7 km/h W 265 ° 0 min 0 W/m² -1,7 °C -8,0 °C 48,3 km/h
22.01.2022 07:20 -1,1 °C 1,7 °C 96 % 1027,4 hPa 0,0 mm 27,0 km/h SW 221 ° 0 min 0 W/m² -1,7 °C -7,6 °C 50,6 km/h
22.01.2022 07:10 -1,1 °C 1,7 °C 96 % 1027,4 hPa 0,0 mm 27,7 km/h W-SW 257 ° 0 min 0 W/m² -1,7 °C -7,7 °C 50,6 km/h
22.01.2022 07:00 -1,1 °C 1,7 °C 96 % 1027,2 hPa 0,0 mm 33,7 km/h SW 236 ° 0 min 0 W/m² -1,7 °C -8,3 °C 52,9 km/h
22.01.2022 06:50 -1,2 °C 1,7 °C 96 % 1027,2 hPa 0,0 mm 35,4 km/h W-SW 254 ° 0 min 0 W/m² -1,8 °C -8,6 °C 71,2 km/h
22.01.2022 06:40 -1,2 °C 1,7 °C 96 % 1027,0 hPa 0,0 mm 35,7 km/h W-SW 254 ° 0 min 0 W/m² -1,8 °C -8,6 °C 73,5 km/h
22.01.2022 06:30 -1,3 °C 1,7 °C 96 % 1026,9 hPa 0,0 mm 33,2 km/h SW 223 ° 0 min 0 W/m² -1,9 °C -8,5 °C 57,5 km/h
22.01.2022 06:20 -1,3 °C 1,7 °C 96 % 1026,8 hPa 0,0 mm 36,5 km/h SW 215 ° 0 min 0 W/m² -1,9 °C -8,8 °C 62,0 km/h
22.01.2022 06:10 -1,4 °C 1,7 °C 96 % 1027,0 hPa 0,0 mm 31,7 km/h SW 235 ° 0 min 0 W/m² -2,0 °C -8,5 °C 55,2 km/h
22.01.2022 06:00 -1,4 °C 1,1 °C 96 % 1027,0 hPa 0,0 mm 32,6 km/h SW 231 ° 0 min 0 W/m² -2,0 °C -8,6 °C 55,2 km/h
22.01.2022 05:50 -1,4 °C 1,1 °C 96 % 1027,0 hPa 0,0 mm 34,5 km/h W-SW 247 ° 0 min 0 W/m² -2,0 °C -8,8 °C 57,5 km/h
22.01.2022 05:40 -1,4 °C 1,1 °C 96 % 1027,0 hPa 0,0 mm 34,4 km/h SW 221 ° 0 min 0 W/m² -2,0 °C -8,8 °C 59,8 km/h
22.01.2022 05:30 -1,5 °C 1,1 °C 95 % 1027,0 hPa 0,0 mm 38,3 km/h SW 215 ° 0 min 0 W/m² -2,2 °C -9,3 °C 57,5 km/h
22.01.2022 05:20 -1,5 °C 1,1 °C 95 % 1027,1 hPa 0,0 mm 35,6 km/h SW 223 ° 0 min 0 W/m² -2,2 °C -9,0 °C 62,0 km/h
22.01.2022 05:10 -1,6 °C 1,1 °C 95 % 1027,0 hPa 0,0 mm 31,8 km/h S-SW 198 ° 0 min 0 W/m² -2,3 °C -8,8 °C 50,6 km/h
22.01.2022 05:00 -1,6 °C 1,1 °C 95 % 1027,2 hPa 0,0 mm 35,4 km/h SW 223 ° 0 min 0 W/m² -2,3 °C -9,1 °C 55,2 km/h
_ Min-Zeit 05:10 06:00 05:30 06:20 - 04:00 - - - - 05:10 05:30 04:00
Minimum _ -1,6 °C 1,1 °C 95 % 1026,8 hPa - 0,0 km/h - - - - -2,3 °C -9,3 °C 0,0 km/h
_ Max-Zeit 04:30 15:50 04:30 02:40 18:00 05:30 - - 04:30 13:40 04:30 04:20 06:40
Maximum _ 0,6 °C 2,2 °C 98 % 1032,6 hPa 0,2 mm 38,3 km/h
SW
- - 0 min 52 W/m² 0,3 °C 0,5 °C 73,5 km/h
W
Durchschnitt _ -0,1 °C 1,7 °C 97 % 1030,3 hPa #0,2 mm 20,3 km/h W-SW - #0 min. 0 W/m² -0,5 °C -5,0 °C 34,6 km/h